Tracking 18852 objects as of 24-Nov-2017
HD Live streaming from Space Station
objects crossing your sky now

COSMOS 1898

Track COSMOS 1898 now!
10-day predictions
COSMOS 1898 is classified as:


NORAD ID: 18585
Int'l Code: 1987-098A
Perigee: 772.7 km
Apogee: 801.3 km
Inclination: 74.0 °
Period: 100.4 minutes
Semi major axis: 7158 km
RCS: 2.2742 m2 (large)
Launch date: December 1, 1987
Source: Commonwealth of Independent States (former USSR) (CIS)
Launch site: PLESETSK MISSILE AND SPACE COMPLEX (PKMTR)
aabbcc
Your satellite tracking list
Your tracking list is empty




NASA's NSSDC Master Catalog

Two Line Element Set (TLE):
1 18585U 87098A   17327.78149272  .00000041  00000-0  24361-4 0  9994
2 18585  74.0063  83.3041 0019919  93.7090 266.6339 14.33556265567457
Source of the keplerian elements: AFSPC